DELTA 1 DEB, 18429

Orbit data source: Space-Track

DELTA 1 DEB, 18429 is space debris in SSO originally from a launch on Thu, 29 Jul 1976 UTC launched from the Air Force Western Test Range (AFWTR). Debris objects in space refer to the collection of defunct objects orbiting the Earth. Examples of debris include non-operational satellites, rocket bodies, and fragments generated from explosions, collisions, or faulty payload assembly.

Loading next visibility...
Identifier
18429, 1976-077EZ
Orbit
SSO
Country
Flag of USUS
Related business
Manufacturer
Unknown
Mission
Spacecraft
Bus & Motor
Unknown
Mass
Unknown
Launch date (UTC)
1976-07-29 (50 years ago)
Launch vehicle
Unknown
Launch site
Air Force Western Test Range (AFWTR)
Object type
Payload
Rocket body
Debris
Shape & HBR
Unknown shape, 0.1 m
Radar Cross Section
Small (<0.1 m²)

Expand to show TLE details & history
Last TLE update: 3 weeks ago

TLE from 3 weeks ago
0 DELTA 1 DEB
1 18429U 76077EZ  26101.11513660 -.00000102  00000-0 -61554-3 0  9993
2 18429 102.4847 153.5852 0227020 312.3538  71.9787 12.06398710607592
Epoch: 2026-04-11T02:45Z
TLE epoch observation values (Epoch: 2026-04-11T02:45:47.802Z)
Latitude
26.17787°
Longitude
-93.42133°
Altitude
1,602.521 km
Speed
7.094 km/s
True Right ascension
09h 49m 28s
True Declination
26° 03' 23"
Sunlit
Object was in daylight at epoch
Visualization orbit readout
Latitude
Unknown
Longitude
Unknown
Altitude
Unknown
Speed
Unknown
Apparent Right ascension
Unknown
Apparent Declination
Unknown
Sunlit
N/A
Visualization observer readout
Local Sidereal Time
16:51:35
Azimuth
Unknown
Elevation
Unknown
Doppler factor
Unknown
Orbital elements
Apogee altitude
1,832.239 km
Perigee altitude
1,467.73 km
Semi-major axis
8,028.121 km
Eccentricity
0.0227
Inclination
102.4847°
RAAN
153.5852°
Arg. of periapsis
312.3538°
True anomaly
74.47365°
Mean anomaly
71.9787°
Eccentric anomaly
73.22407°
Mean motion
3.01733 °/min
Orbital period
119.31 mins
BSTAR
-0.00061554
Loading maneuver chart data...
Computing Atmospheric mass density...
Loading historical data...
Loading historical data...
Loading historical data...
Loading historical data...
Loading historical data...
Loading historical data...
Loading historical data...

Documentation

Showing up to 5 results
|